Date,TemperatureHighF,TemperatureAvgF,TemperatureLowF,DewpointHighF,DewpointAvgF,DewpointLowF,HumidityHigh,HumidityAvg,HumidityLow,PressureMaxIn,PressureMinIn,WindSpeedMaxMPH,WindSpeedAvgMPH,GustSpeedMaxMPH,PrecipitationSumIn
2013-1-1,42.6,38.8,30.0,32.1,28.9,17.0,78,67,56,30.04,29.85,19,6,19,0.00
2013-1-2,34.2,28.7,24.9,19.2,16.7,13.5,70,61,53,30.21,30.00,15,4,16,0.00
2013-1-3,34.7,28.9,23.4,21.5,18.7,17.5,82,66,52,30.22,30.10,13,3,13,0.00
2013-1-4,37.7,33.8,27.5,25.0,23.6,21.5,79,66,57,30.14,30.00,25,7,25,0.00
2013-1-5,42.4,34.8,29.5,26.5,23.7,21.2,79,64,51,30.33,30.05,17,4,18,0.00
2013-1-6,46.7,37.7,31.9,35.9,31.0,25.1,96,78,57,30.26,30.00,13,2,14,0.03
2013-1-7,47.2,38.0,25.9,33.2,28.2,22.8,88,69,46,30.43,30.08,13,2,13,0.00
2013-1-8,50.2,35.5,22.7,35.6,29.4,20.8,95,80,56,30.46,30.36,19,2,20,0.00
2013-1-9,52.7,42.1,29.0,42.8,35.8,27.3,95,79,58,30.42,30.17,19,4,19,0.00
2013-1-10,50.3,43.1,33.2,35.0,29.3,27.1,83,59,43,30.56,30.28,20,4,20,0.00
2013-1-11,48.9,41.9,33.0,46.1,37.7,28.6,97,85,71,30.55,30.08,9,1,13,0.47
2013-1-12,48.6,46.4,44.7,47.0,45.6,44.1,99,97,94,30.19,30.07,7,1,8,0.00
2013-1-13,54.6,47.9,42.1,51.4,46.9,41.8,99,96,86,30.17,30.02,11,2,12,0.01
2013-1-14,58.9,53.0,39.9,57.3,47.5,29.8,100,83,46,30.30,29.94,14,3,15,0.06
2013-1-15,39.9,38.7,36.5,37.9,33.0,29.0,94,80,66,30.36,30.22,10,2,10,0.24
2013-1-16,38.9,36.6,34.6,38.4,35.5,33.3,98,96,90,30.22,29.80,14,3,15,0.68
2013-1-17,44.5,39.9,37.9,37.0,33.7,29.3,94,79,63,30.11,29.95,14,3,14,0.00
2013-1-18,37.9,30.9,25.3,29.5,17.1,8.0,75,57,38,30.52,30.00,20,4,20,0.00
2013-1-19,53.3,40.3,26.3,30.6,26.2,14.2,76,58,39,30.44,29.96,23,7,26,0.00
2013-1-20,54.9,44.4,31.9,33.2,26.9,15.5,69,52,28,30.06,29.73,27,8,29,0.00
2013-1-21,33.1,29.6,26.1,26.3,17.8,12.0,92,62,44,30.12,29.86,10,2,11,0.00
2013-1-22,26.5,20.0,14.3,19.4,3.9,-2.2,75,50,37,30.26,29.87,23,8,25,0.00
2013-1-23,20.6,14.6,8.8,6.6,2.2,-2.2,84,58,44,30.30,30.20,19,5,19,0.00
2013-1-24,25.4,17.5,9.2,8.6,4.5,-1.1,87,59,33,30.45,30.15,26,5,26,0.00
2013-1-25,24.7,17.9,10.0,17.3,7.5,0.1,89,65,45,30.47,30.09,13,3,13,0.00
2013-1-26,28.6,20.1,9.4,14.8,10.8,6.7,92,69,47,30.41,30.08,15,4,17,0.00
2013-1-27,34.9,25.0,16.0,17.0,13.7,8.9,82,63,45,30.56,30.41,14,3,15,0.00
2013-1-28,36.7,30.4,20.6,35.6,27.4,15.9,96,89,77,30.53,30.04,11,3,12,0.10
2013-1-29,53.6,43.7,34.9,46.5,40.7,33.8,97,90,72,30.16,30.03,8,2,8,0.00
2013-1-30,68.0,56.4,44.5,61.1,53.2,43.8,99,90,77,30.08,29.38,35,6,37,0.04
2013-1-31,62.9,46.2,30.3,60.0,33.9,13.2,94,64,39,29.85,29.11,42,15,42,0.86
2013-2-1,32.0,28.9,23.9,21.5,12.7,8.0,76,51,39,30.28,29.85,24,7,27,0.00
2013-2-2,30.6,25.0,18.5,22.2,11.0,6.8,90,56,39,30.34,30.07,18,5,18,0.00
2013-2-3,32.3,26.5,22.0,25.2,22.4,18.8,94,85,68,30.07,29.82,10,2,11,0.03
2013-2-4,30.5,26.6,22.3,24.6,15.4,11.5,92,63,46,30.03,29.85,22,7,25,0.01
2013-2-5,33.7,31.2,26.9,31.4,28.7,22.9,94,91,85,29.99,29.90,8,1,9,0.00
2013-2-6,40.2,34.1,28.7,31.3,25.7,15.5,96,73,50,30.38,29.93,19,4,23,0.01
2013-2-7,37.8,29.4,22.0,33.4,20.0,14.5,84,68,57,30.51,30.31,10,2,10,0.00
2013-2-8,41.6,37.4,30.1,40.3,35.4,29.1,96,93,84,30.31,29.63,23,7,23,0.78
2013-2-9,34.6,29.1,22.2,30.2,20.3,9.5,97,72,43,30.36,29.76,23,7,23,0.11
2013-2-10,41.7,26.8,11.8,25.4,14.3,7.9,87,62,29,30.51,30.34,9,2,11,0.08
2013-2-11,54.4,43.8,31.4,52.9,41.9,25.4,99,93,78,30.36,29.66,18,3,18,0.26
2013-2-12,46.1,41.3,32.0,43.0,29.8,25.5,94,64,50,29.99,29.76,24,6,25,0.01
2013-2-13,43.4,34.9,24.3,32.6,28.2,22.3,96,78,56,29.98,29.70,10,1,10,0.00
2013-2-14,47.4,37.8,32.8,36.3,33.3,30.7,96,85,54,30.04,29.72,11,2,11,0.14
2013-2-15,57.6,43.4,32.1,40.0,35.1,30.8,96,75,42,30.05,29.93,14,3,15,0.01
2013-2-16,43.5,37.3,32.0,35.2,29.9,18.5,92,76,56,29.97,29.74,13,4,16,0.00
2013-2-17,32.7,28.5,20.4,18.5,9.5,3.1,57,45,34,30.06,29.69,32,9,32,0.01
2013-2-18,36.2,26.7,18.4,14.9,8.6,2.7,55,46,35,30.29,30.06,24,7,28,0.00
2013-2-19,52.1,40.6,27.7,45.5,32.6,14.2,96,74,49,30.24,29.70,23,6,23,0.23
2013-2-20,38.9,31.6,26.3,28.7,17.5,12.2,70,56,46,30.03,29.77,26,11,42,0.01
2013-2-21,36.9,29.5,24.5,18.9,15.9,12.5,66,57,46,30.30,30.02,29,8,32,0.00
2013-2-22,37.3,31.5,23.3,34.2,25.0,15.9,92,77,66,30.42,30.27,9,2,9,0.01
2013-2-23,46.3,41.2,36.1,45.8,40.3,34.0,98,96,92,30.28,29.80,11,3,18,0.31
2013-2-24,49.1,39.9,32.9,41.0,33.8,23.8,98,80,56,30.01,29.76,14,5,24,0.01
2013-2-25,44.7,37.1,28.5,31.7,27.3,23.1,82,68,54,30.25,30.01,7,2,11,0.00
2013-2-26,45.4,36.4,25.8,38.0,30.9,23.3,92,81,61,30.29,29.83,18,5,26,0.27
2013-2-27,52.8,46.1,40.2,49.8,42.4,37.4,95,87,68,29.85,29.50,15,5,25,0.83
2013-2-28,49.0,43.3,37.3,38.8,34.7,28.8,91,72,55,29.65,29.57,10,3,15,0.01
2013-3-1,44.9,39.3,33.8,32.8,29.1,25.6,86,68,49,29.80,29.63,10,4,15,0.00
2013-3-2,41.5,35.8,30.5,26.0,23.7,22.0,71,61,51,29.81,29.71,11,4,16,0.00
2013-3-3,38.1,32.6,28.8,22.1,19.7,17.4,70,59,48,29.79,29.70,13,5,21,0.00
2013-3-4,42.0,34.2,27.5,21.7,19.2,15.7,65,54,42,29.94,29.79,18,7,25,0.00
2013-3-5,49.2,37.1,29.1,27.4,23.9,20.7,82,60,39,30.03,29.93,10,2,17,0.00
2013-3-6,40.9,38.3,29.0,35.9,32.5,24.4,89,80,73,29.97,29.76,19,9,39,0.26
2013-3-7,40.4,36.3,33.8,34.5,31.3,28.0,91,82,72,30.09,29.89,11,-2,20,0.14
2013-3-8,41.3,34.8,31.1,35.6,31.7,28.8,96,89,70,30.19,30.01,9,3,17,0.29
2013-3-9,56.4,41.7,30.5,30.5,26.4,19.9,83,58,25,30.33,30.18,8,-1,13,0.00
2013-3-10,46.9,37.2,25.9,39.0,32.3,24.0,95,83,68,30.40,30.32,8,2,12,0.00
2013-3-11,56.2,44.2,31.7,48.9,41.2,30.4,98,90,71,30.33,30.10,10,-2,14,0.00
2013-3-12,57.2,53.1,46.0,56.0,50.0,38.9,97,89,76,30.10,29.68,14,5,27,0.69
2013-3-13,49.9,43.0,36.5,39.1,32.3,25.0,87,68,41,29.92,29.82,15,5,23,0.00
2013-3-14,41.5,35.7,30.5,27.3,17.7,11.8,67,49,34,29.99,29.88,20,8,30,0.01
2013-3-15,48.7,38.8,28.9,29.4,21.0,12.0,61,49,39,30.02,29.74,16,2,23,0.00
2013-3-16,43.1,36.2,32.6,32.3,29.4,24.0,95,78,56,29.92,29.78,5,-2,9,0.03
2013-3-17,38.6,33.6,28.8,32.2,24.2,19.1,95,70,49,30.31,29.92,10,2,16,0.16
2013-3-18,38.4,33.7,27.7,37.2,26.3,15.3,96,75,55,30.41,29.96,13,5,21,0.36
2013-3-19,48.7,41.1,37.7,40.6,35.8,19.8,97,83,44,29.96,29.71,14,4,22,0.35
2013-3-20,45.9,38.5,31.7,27.5,21.1,18.2,71,50,33,29.93,29.81,18,6,25,0.00
2013-3-21,38.8,33.5,30.2,29.1,23.3,15.1,87,67,42,29.83,29.65,11,3,17,0.00
2013-3-22,41.3,34.1,27.6,23.0,20.2,14.9,71,57,42,29.92,29.77,17,3,25,0.00
2013-3-23,46.4,38.0,28.8,25.3,22.2,20.1,73,54,38,29.95,29.84,16,2,23,0.00
2013-3-24,46.4,38.1,28.1,27.9,22.6,19.6,72,54,38,29.97,29.71,9,-1,16,0.00
2013-3-25,38.6,35.7,33.3,34.5,31.5,27.7,93,85,70,29.71,29.46,10,3,21,0.59
2013-3-26,49.4,41.9,32.8,35.6,31.5,27.0,93,69,43,29.89,29.60,12,-1,18,0.00
2013-3-27,50.7,42.9,34.7,32.7,28.6,23.4,73,58,35,30.00,29.89,14,5,19,0.00
2013-3-28,48.7,42.8,34.9,32.9,30.1,28.3,79,61,46,30.13,29.99,10,3,15,0.00
2013-3-29,53.4,44.9,36.2,31.9,28.8,25.9,72,54,36,30.17,30.07,12,3,16,0.00
2013-3-30,57.0,45.4,32.2,34.2,26.7,19.4,84,52,24,30.19,30.09,11,2,16,0.00
2013-3-31,55.9,45.1,32.1,46.2,35.3,26.6,94,71,38,30.15,29.69,14,0,19,0.27
2013-4-1,62.0,50.2,38.4,46.6,38.0,14.3,94,66,34,29.93,29.64,15,6,23,0.00
2013-4-2,44.1,37.7,26.8,18.4,14.1,10.7,67,39,26,30.11,29.93,18,6,26,0.01
2013-4-3,46.4,38.8,31.8,18.3,13.9,10.2,47,36,26,30.31,30.10,17,3,26,0.00
2013-4-4,52.4,39.9,28.4,28.6,20.6,10.9,64,46,32,30.41,30.12,10,-1,17,0.00
2013-4-5,63.4,48.2,37.7,38.9,28.6,15.4,91,54,18,30.11,29.72,12,0,21,0.06
2013-4-6,49.9,41.8,35.3,28.0,21.6,12.9,71,46,25,30.33,30.01,15,3,21,0.00
2013-4-7,60.0,48.1,35.7,43.9,35.7,27.6,78,63,42,30.33,30.03,14,4,22,0.00
2013-4-8,72.5,59.7,45.6,50.3,45.6,41.1,87,61,37,30.08,29.98,9,2,13,0.00
2013-4-9,81.8,70.0,58.8,53.8,48.8,40.8,74,50,24,29.99,29.91,14,5,24,0.00
2013-4-10,80.8,65.1,55.6,57.3,51.6,46.9,92,63,40,29.94,29.78,14,3,21,0.41
2013-4-11,60.9,55.4,46.0,59.5,51.6,41.8,95,87,73,30.01,29.75,10,4,16,0.02
2013-4-12,46.0,43.8,42.5,43.7,41.9,40.6,95,93,84,30.00,29.69,13,2,24,0.89
2013-4-13,58.1,48.3,39.7,44.1,40.5,34.1,95,77,42,29.99,29.74,12,2,18,0.04
2013-4-14,59.9,50.3,39.0,44.7,35.7,26.5,95,62,32,30.21,29.98,18,3,27,0.00
2013-4-15,54.9,48.8,43.2,42.3,35.6,31.5,86,61,46,30.38,30.21,10,3,15,0.00
2013-4-16,69.8,57.3,46.2,55.7,49.6,41.9,89,76,60,30.38,30.14,11,4,21,0.00
2013-4-17,72.3,60.1,47.4,55.2,47.2,35.1,92,65,28,30.29,30.11,8,2,13,0.01
2013-4-18,59.3,52.3,43.3,56.5,46.6,39.7,94,81,64,30.34,30.09,10,2,16,0.00
2013-4-19,76.0,66.3,57.3,64.1,60.6,55.3,94,82,64,30.09,29.67,19,6,29,0.04
2013-4-20,64.9,52.5,47.7,61.9,36.4,25.0,91,58,33,30.30,29.69,16,7,22,0.20
2013-4-21,52.9,44.1,36.1,30.8,25.4,20.2,79,48,32,30.62,30.30,8,2,15,0.00
2013-4-22,48.0,42.0,30.9,39.0,33.9,28.0,92,74,59,30.64,30.48,14,5,24,0.00
2013-4-23,49.9,44.8,42.1,42.5,39.0,35.1,91,80,75,30.48,30.12,10,3,17,0.01
2013-4-24,72.8,54.4,37.2,54.4,45.7,34.3,92,74,49,30.12,29.85,11,3,17,0.00
2013-4-25,63.4,54.0,42.6,53.0,36.0,25.6,84,53,24,30.28,29.90,14,4,21,0.00
2013-4-26,64.1,51.8,36.5,38.7,34.2,25.9,89,56,24,30.40,30.28,13,2,19,0.00
2013-4-27,66.3,52.8,35.7,40.4,33.3,28.3,90,52,26,30.43,30.31,7,-2,12,0.00
2013-4-28,67.3,54.7,38.5,45.6,35.9,26.8,87,53,27,30.33,30.22,10,2,15,0.00
2013-4-29,55.9,53.6,50.7,50.4,48.7,45.6,91,84,70,30.25,30.17,10,2,17,0.16
2013-4-30,62.6,54.5,43.2,48.5,42.4,30.9,90,66,32,30.34,30.19,11,3,17,0.01
2013-5-1,61.9,50.8,37.3,47.8,40.3,34.5,94,69,40,30.49,30.33,10,3,17,0.00
2013-5-2,67.0,53.6,37.9,47.8,41.0,35.8,94,66,36,30.48,30.35,7,2,11,0.00
2013-5-3,58.4,51.4,43.0,45.9,41.6,35.3,90,70,48,30.46,30.36,11,3,21,0.00
2013-5-4,61.4,50.4,39.1,47.5,41.5,37.0,94,74,46,30.38,30.26,10,2,16,0.00
2013-5-5,55.7,48.4,39.3,44.5,40.7,36.3,92,75,61,30.30,30.23,10,2,17,0.00
2013-5-6,60.8,52.5,46.1,51.9,47.1,42.9,93,82,68,30.27,30.17,9,2,14,0.00
2013-5-7,65.6,56.0,49.3,58.2,52.8,47.2,95,89,76,30.17,30.09,9,2,14,0.04
2013-5-8,70.1,61.0,55.1,64.4,56.8,51.6,95,87,59,30.10,29.94,9,2,15,0.98
2013-5-9,69.6,60.4,53.9,58.6,54.6,51.0,95,82,58,30.01,29.91,9,2,13,0.45
2013-5-10,80.8,65.5,51.1,60.5,55.7,49.1,95,73,38,30.01,29.89,10,2,14,0.00
2013-5-11,75.5,65.6,62.2,65.9,61.5,57.1,95,87,68,29.92,29.70,11,3,22,0.78
2013-5-12,65.8,60.1,50.3,62.3,43.5,25.9,95,59,28,29.97,29.68,17,6,25,0.03
2013-5-13,55.7,49.3,40.5,35.0,30.4,23.6,75,49,31,30.12,29.97,15,4,21,0.00
2013-5-14,60.3,48.8,35.5,35.1,30.6,22.9,87,53,24,30.16,30.05,12,2,17,0.00
2013-5-15,73.4,60.8,44.7,57.9,49.4,32.0,81,67,49,30.10,29.70,12,-1,17,0.00
2013-5-16,79.0,67.0,55.3,61.0,55.9,48.6,93,70,39,29.85,29.71,11,1,17,0.01
2013-5-17,73.0,63.5,49.7,57.7,44.7,37.0,89,53,29,30.21,29.84,10,2,15,0.00
2013-5-18,65.2,57.1,49.8,55.5,51.6,45.3,91,82,64,30.32,30.20,7,1,11,0.03
2013-5-19,58.9,57.0,54.8,57.8,55.3,52.5,96,94,91,30.30,30.17,10,2,17,0.30
2013-5-20,79.5,67.6,58.5,69.2,63.4,57.4,96,87,65,30.18,29.98,7,1,13,0.05
2013-5-21,84.0,74.1,64.3,70.3,66.6,62.6,96,79,58,29.99,29.85,10,3,15,0.01
2013-5-22,85.3,73.7,67.0,73.5,68.1,64.8,94,84,59,29.93,29.83,8,3,12,0.00
2013-5-23,80.5,72.1,66.8,71.1,66.7,63.9,93,84,64,29.91,29.76,14,5,22,0.22
2013-5-24,67.0,56.1,44.5,64.0,53.1,41.1,95,90,78,29.98,29.70,10,3,19,0.36
2013-5-25,58.5,50.7,43.6,44.9,40.1,34.5,92,70,44,30.04,29.94,16,6,30,0.12
2013-5-26,68.1,56.9,45.9,41.8,37.1,31.8,74,50,27,30.21,30.01,17,5,24,0.00
2013-5-27,72.2,57.9,38.3,45.4,39.4,34.1,92,55,27,30.27,30.15,11,2,16,0.00
2013-5-28,66.3,58.7,48.2,59.9,53.3,44.8,95,83,57,30.24,30.12,6,-3,12,0.37
2013-5-29,87.2,72.5,57.8,70.1,62.9,56.4,96,75,46,30.14,30.02,10,3,17,0.01
2013-5-30,90.7,80.2,69.2,69.3,65.2,59.7,86,63,37,30.15,30.06,8,3,12,0.00
2013-5-31,92.2,80.5,68.0,70.6,64.4,52.9,91,62,28,30.14,30.00,9,3,14,0.00
2013-6-1,89.3,78.7,68.0,68.8,66.1,62.6,88,67,44,30.04,29.91,11,4,18,0.00
2013-6-2,87.5,77.7,69.6,70.7,67.7,65.1,89,73,52,29.93,29.80,18,6,30,0.05
2013-6-3,77.5,70.9,65.7,69.7,67.1,62.4,94,88,72,29.88,29.79,8,2,11,0.53
2013-6-4,74.5,64.7,55.0,62.5,48.6,42.9,90,58,33,30.11,29.88,10,3,13,0.00
2013-6-5,70.8,61.8,47.7,55.0,50.5,43.1,92,68,49,30.21,30.10,7,2,12,0.00
2013-6-6,70.0,63.0,56.6,61.1,57.7,49.1,95,84,49,30.14,30.00,9,2,14,0.07
2013-6-7,68.6,63.2,60.8,67.4,61.7,58.5,96,95,92,30.00,29.57,8,2,15,0.92
2013-6-8,76.6,67.3,57.8,66.1,61.7,56.1,96,83,64,30.06,29.55,9,3,15,0.68
2013-6-9,81.3,70.4,57.3,64.3,59.9,55.6,95,72,46,30.19,30.06,8,1,12,0.14
2013-6-10,70.4,67.2,63.8,69.2,64.8,61.2,96,92,81,30.16,29.81,6,2,10,0.04
2013-6-11,80.6,74.1,68.1,69.0,65.9,60.8,94,77,58,29.81,29.65,13,5,19,0.02
2013-6-12,79.8,71.7,61.9,61.3,57.4,53.1,86,62,40,29.86,29.74,12,4,22,0.01
2013-6-13,73.5,65.3,59.1,67.1,60.6,55.9,94,85,64,29.85,29.42,11,2,21,0.01
2013-6-14,71.4,60.7,54.0,59.6,54.7,51.4,93,82,58,29.91,29.48,9,2,22,1.03
2013-6-15,79.7,67.8,55.4,60.7,55.6,50.2,93,69,37,30.03,29.91,9,2,14,0.00
2013-6-16,83.4,70.2,57.3,65.1,60.2,54.4,93,73,49,30.01,29.81,15,3,23,0.00
2013-6-17,84.8,73.0,63.7,70.8,65.6,61.6,95,79,52,29.93,29.84,10,2,15,0.21
2013-6-18,78.5,67.2,62.5,69.5,63.9,60.7,95,90,71,29.91,29.80,10,1,14,0.78
2013-6-19,77.1,67.4,57.3,62.6,56.2,47.5,94,70,37,30.17,29.86,6,1,11,0.01
2013-6-20,78.4,66.7,53.7,59.2,54.6,51.4,95,68,44,30.28,30.17,8,2,13,0.00
2013-6-21,80.3,68.4,54.0,60.5,54.9,51.1,93,65,44,30.32,30.25,8,-2,13,0.00
2013-6-22,82.2,69.4,55.0,65.2,58.6,52.7,94,71,44,30.27,30.14,7,-2,11,0.00
2013-6-23,85.2,73.4,61.3,74.0,65.4,55.3,94,77,57,30.21,30.07,12,2,19,0.77
2013-6-24,90.0,77.3,70.8,74.8,69.6,61.2,95,79,49,30.09,29.98,13,3,20,0.02
2013-6-25,89.8,77.5,66.6,73.2,68.1,63.5,93,74,51,30.01,29.83,13,3,17,0.00
2013-6-26,88.3,78.4,70.7,73.3,67.4,63.1,93,71,45,29.87,29.77,10,4,15,0.04
2013-6-27,86.0,76.9,70.8,74.8,71.2,69.0,95,83,60,29.84,29.58,11,2,19,0.11
2013-6-28,85.3,76.8,70.7,71.3,69.4,65.6,92,79,57,29.60,29.49,9,4,15,0.02
2013-6-29,84.2,75.0,66.5,73.1,68.3,64.4,94,81,54,29.71,29.50,8,2,14,0.00
2013-6-30,83.5,74.5,68.6,75.5,71.0,66.8,95,89,73,29.91,29.71,6,1,9,0.16
2013-7-1,80.9,74.7,72.2,74.8,71.7,69.4,94,91,78,30.05,29.90,11,2,16,0.68
2013-7-2,84.2,76.3,72.7,74.4,71.8,69.4,93,87,70,30.20,30.05,11,3,22,0.26
2013-7-3,83.4,75.9,70.0,77.6,72.2,68.2,94,88,76,30.26,30.16,8,2,14,0.25
2013-7-4,88.3,79.8,73.3,75.1,72.6,70.4,95,80,56,30.26,30.17,10,4,16,0.00
2013-7-5,90.3,80.7,71.0,74.8,71.4,68.9,94,75,52,30.23,30.10,11,3,16,0.00
2013-7-6,92.0,82.7,73.5,76.0,72.7,71.1,93,73,52,30.16,30.03,10,4,16,0.00
2013-7-7,91.7,83.0,73.6,75.6,72.6,68.6,91,72,54,30.08,29.94,10,4,15,0.00
2013-7-8,86.3,76.6,70.0,71.8,68.8,66.2,89,78,56,30.07,29.99,9,3,14,0.00
2013-7-9,86.6,78.0,68.9,73.6,69.8,65.9,93,77,58,30.08,29.99,10,2,15,0.00
2013-7-10,86.5,79.6,72.4,76.0,72.5,69.1,92,80,62,30.03,29.82,12,4,18,0.00
2013-7-11,84.3,78.1,74.0,74.1,70.9,66.1,94,80,59,29.91,29.82,7,2,11,0.23
2013-7-12,75.1,71.8,68.3,69.4,66.5,63.2,94,84,72,30.06,29.91,11,3,17,0.67
2013-7-13,85.1,76.2,69.6,76.1,72.5,67.8,96,89,69,30.28,30.06,8,-2,13,0.12
2013-7-14,89.0,80.2,72.7,74.7,72.7,70.7,95,79,58,30.34,30.25,7,2,12,0.00
2013-7-15,92.8,82.9,72.9,75.5,73.1,70.4,93,74,53,30.27,30.12,8,2,13,0.00
2013-7-16,92.9,82.9,72.7,74.3,70.3,65.8,93,69,42,30.20,30.12,5,1,11,0.00
2013-7-17,94.0,82.7,71.0,74.5,71.1,68.7,94,70,46,30.19,30.07,6,1,8,0.00
2013-7-18,95.2,85.0,74.5,77.3,72.9,69.3,86,69,46,30.09,29.96,8,2,12,0.00
2013-7-19,95.0,86.4,78.3,79.5,75.9,73.9,90,72,52,29.99,29.82,12,4,19,0.00
2013-7-20,92.3,83.8,77.1,75.4,73.0,70.4,82,71,53,29.84,29.74,13,4,19,0.01
2013-7-21,84.3,76.7,72.1,73.3,69.6,64.1,93,80,52,29.95,29.83,7,2,13,0.02
2013-7-22,83.8,76.4,73.0,75.8,73.1,70.9,95,90,73,29.95,29.79,7,1,10,0.99
2013-7-23,86.5,77.3,70.1,74.5,72.1,67.7,96,85,62,29.79,29.58,11,2,16,0.40
2013-7-24,81.4,75.6,69.6,71.1,66.2,56.8,91,73,59,29.92,29.63,7,2,12,0.02
2013-7-25,69.6,65.9,64.1,59.6,57.4,54.9,84,74,64,30.04,29.91,7,2,14,0.00
2013-7-26,79.9,71.2,64.4,66.2,62.1,58.8,88,74,51,30.06,29.99,6,2,9,0.00
2013-7-27,82.3,71.8,61.5,68.5,63.8,59.6,95,78,51,30.07,29.96,8,2,12,0.00
2013-7-28,80.5,71.5,62.6,70.7,66.7,60.8,96,86,66,30.00,29.90,9,1,17,0.14
2013-7-29,83.0,73.9,65.6,69.2,63.7,54.5,95,73,41,30.12,29.95,9,2,13,0.03
2013-7-30,79.7,69.9,57.5,60.9,57.9,54.9,92,68,47,30.18,30.11,9,2,13,0.00
2013-7-31,80.8,70.3,57.5,64.1,60.3,55.5,94,73,48,30.17,30.05,6,1,10,0.00
2013-8-1,71.9,69.2,66.9,67.8,65.3,62.2,95,88,79,30.05,29.83,7,1,11,0.88
2013-8-2,83.0,74.2,66.8,67.2,65.2,60.6,95,75,48,29.94,29.81,12,2,16,0.00
2013-8-3,76.4,70.6,65.8,67.8,65.3,62.8,91,84,70,29.94,29.87,9,2,13,0.03
2013-8-4,78.2,70.2,60.8,63.8,58.8,52.5,96,70,45,29.99,29.85,11,2,16,0.01
2013-8-5,76.6,67.6,58.6,59.1,52.9,45.7,82,61,36,30.07,29.98,8,2,11,0.00
2013-8-6,79.1,68.7,55.2,63.6,57.5,52.9,94,70,43,30.13,30.05,9,1,14,0.00
2013-8-7,78.3,71.5,66.3,67.8,65.5,62.7,90,82,67,30.15,30.07,8,2,13,0.00
2013-8-8,83.7,75.0,70.3,75.5,70.6,67.6,94,87,73,30.08,30.00,8,2,14,0.38
2013-8-9,84.6,78.1,73.7,75.7,73.4,70.4,92,86,73,30.03,29.82,12,3,17,0.03
2013-8-10,81.3,75.5,67.6,73.2,67.0,61.7,94,76,55,30.05,29.87,8,2,13,0.00
2013-8-11,82.2,70.9,59.8,66.1,61.0,55.5,93,73,49,30.13,30.03,7,1,11,0.00
2013-8-12,79.7,72.3,66.5,71.8,68.1,64.4,95,87,71,30.05,29.93,5,0,8,0.02
2013-8-13,77.8,71.0,67.1,71.7,68.4,65.3,96,92,74,29.94,29.71,7,1,10,1.04
2013-8-14,73.3,67.1,57.4,66.9,54.3,48.4,86,65,47,30.06,29.75,13,3,20,0.00
2013-8-15,77.0,64.7,51.7,56.7,52.1,46.0,93,67,36,30.16,30.06,7,1,9,0.00
2013-8-16,79.2,66.1,52.6,59.2,54.4,49.5,94,69,38,30.22,30.14,6,1,10,0.00
2013-8-17,79.4,67.0,53.2,62.7,56.7,51.2,94,73,43,30.28,30.21,6,1,9,0.00
2013-8-18,75.5,67.1,60.2,65.9,60.3,55.8,93,80,53,30.26,30.14,5,1,9,0.01
2013-8-19,76.2,68.2,58.9,64.8,60.7,56.3,94,78,54,30.15,30.05,8,2,11,0.00
2013-8-20,85.8,73.8,62.3,69.7,65.1,60.1,95,77,49,30.14,30.07,7,1,10,0.00
2013-8-21,86.8,75.2,64.4,70.2,65.2,58.0,95,74,38,30.18,30.07,6,1,11,0.01
2013-8-22,80.7,73.5,70.5,72.6,69.1,66.8,94,86,71,30.08,29.89,9,2,15,0.10
2013-8-23,81.4,72.6,62.1,68.0,63.1,52.1,93,74,38,30.09,29.89,6,-2,13,0.00
2013-8-24,77.0,68.1,57.5,60.4,56.9,49.2,91,69,38,30.35,30.09,8,1,12,0.00
2013-8-25,79.9,66.4,51.8,60.5,53.7,49.8,95,68,37,30.41,30.26,8,2,11,0.00
2013-8-26,83.3,71.6,61.8,65.9,61.5,53.3,85,71,52,30.27,29.93,12,4,17,0.00
2013-8-27,86.8,76.7,69.5,69.6,67.6,65.7,91,75,51,29.94,29.85,10,2,15,0.05
2013-8-28,81.4,73.0,66.2,72.7,69.2,64.0,95,88,72,29.90,29.84,6,0,9,0.05
2013-8-29,78.5,71.6,67.1,69.1,67.1,64.2,95,86,69,30.04,29.87,7,2,12,0.01
2013-8-30,81.5,73.2,67.3,70.3,67.4,64.6,92,83,66,30.03,29.88,9,3,14,0.00
2013-8-31,87.3,76.8,70.1,74.4,70.4,67.4,92,81,63,29.90,29.80,9,4,13,0.00
2013-9-1,86.5,75.6,71.1,74.9,71.0,68.0,95,86,63,29.86,29.79,11,2,15,0.16
2013-9-2,79.8,74.6,70.4,74.3,72.0,68.6,96,92,75,29.81,29.72,7,0,10,0.20
2013-9-3,80.6,72.8,64.0,72.0,65.8,57.7,96,81,48,29.90,29.72,9,2,15,0.01
2013-9-4,79.5,68.7,58.1,60.5,57.6,53.3,93,70,45,30.02,29.89,10,2,14,0.00
2013-9-5,77.8,67.6,53.7,62.2,55.0,43.8,90,66,35,30.15,29.96,9,2,15,0.00
2013-9-6,71.6,60.0,50.4,50.5,47.2,42.0,90,65,35,30.26,30.14,6,1,11,0.00
2013-9-7,77.0,61.5,44.8,57.2,49.4,42.9,94,69,34,30.15,29.93,9,2,12,0.00
2013-9-8,81.5,70.2,61.0,66.1,58.3,46.4,93,68,44,30.07,29.84,9,2,15,0.00
2013-9-9,72.4,62.7,49.4,59.2,52.9,46.5,93,72,53,30.24,30.08,7,-2,11,0.00
2013-9-10,85.9,75.1,63.9,73.4,68.1,59.3,88,79,65,30.19,30.06,10,3,14,0.00
2013-9-11,92.4,81.0,72.3,77.3,72.2,69.5,93,76,54,30.13,29.99,9,2,13,0.00
2013-9-12,86.0,75.9,69.8,75.0,70.5,67.0,92,84,61,30.01,29.70,10,2,16,0.30
2013-9-13,75.3,68.3,58.9,67.4,60.9,49.8,95,78,55,29.87,29.65,11,2,16,0.06
2013-9-14,66.0,57.6,48.9,50.4,47.9,44.9,87,71,53,30.15,29.87,9,2,15,0.00
2013-9-15,72.0,57.4,42.9,54.2,47.6,40.8,94,73,43,30.24,30.10,9,2,13,0.01
2013-9-16,69.8,61.3,54.6,59.7,55.3,50.6,93,81,61,30.23,30.05,6,-6,10,0.10
2013-9-17,62.9,54.8,44.1,51.2,41.8,37.7,91,63,41,30.43,30.23,8,2,16,0.00
2013-9-18,70.7,54.2,39.4,52.7,45.4,37.5,95,75,44,30.36,30.21,7,1,10,0.00
2013-9-19,75.0,58.7,43.3,56.7,50.1,41.4,95,76,43,30.22,30.09,7,1,10,0.00
2013-9-20,77.9,61.9,46.8,61.0,54.0,44.9,95,78,42,30.11,30.01,8,1,13,0.00
2013-9-21,78.5,65.6,49.7,66.8,59.5,47.8,96,82,47,30.03,29.69,15,2,21,0.07
2013-9-22,69.2,63.3,54.3,66.6,53.1,42.4,95,72,45,29.93,29.66,12,2,17,0.81
2013-9-23,65.6,55.6,46.9,46.6,43.3,40.9,82,64,47,30.05,29.92,10,2,16,0.00
2013-9-24,70.2,55.2,43.6,52.2,45.8,40.7,90,73,46,30.08,29.90,11,2,13,0.00
2013-9-25,71.5,56.7,42.9,53.7,47.4,40.8,94,74,40,29.98,29.89,6,0,10,0.00
2013-9-26,70.1,57.7,46.0,59.9,52.6,44.2,95,84,64,30.10,29.95,7,1,11,0.00
2013-9-27,67.2,59.8,50.3,57.1,53.3,48.6,96,80,59,30.27,30.10,5,1,9,0.00
2013-9-28,71.1,61.3,50.8,56.2,52.6,48.3,93,75,50,30.32,30.24,9,-6,15,0.00
2013-9-29,69.2,56.7,46.0,59.5,50.5,44.1,96,81,60,30.24,30.09,6,-2,10,0.00
2013-9-30,72.0,57.1,44.2,57.0,50.4,42.3,96,80,49,30.09,29.99,6,-3,9,0.01
2013-10-1,79.0,63.3,49.2,61.3,55.4,47.5,95,78,50,30.03,29.92,9,1,12,0.01
2013-10-2,82.0,66.8,52.9,63.3,58.3,50.9,96,77,47,30.03,29.93,11,2,15,0.00
2013-10-3,78.7,65.7,54.4,62.0,57.3,52.7,95,76,48,30.13,30.03,6,1,14,0.00
2013-10-4,84.3,69.5,56.3,66.7,61.3,54.2,95,77,51,30.08,29.98,8,1,11,0.00
2013-10-5,76.8,67.6,64.2,67.2,63.7,61.8,95,88,71,30.10,30.01,6,-2,10,0.00
2013-10-6,73.5,67.4,64.2,68.3,65.3,62.7,96,93,83,30.09,30.02,6,1,10,0.00
2013-10-7,77.1,67.8,58.8,70.5,64.5,53.6,96,89,75,30.02,29.80,18,2,25,0.43
2013-10-8,66.2,57.0,50.0,53.5,48.3,44.6,92,75,46,30.31,30.01,5,0,10,0.00
2013-10-9,61.4,57.9,52.3,51.4,49.0,41.8,82,72,57,30.37,30.25,10,3,17,0.00
2013-10-10,61.6,58.2,54.5,58.1,54.5,50.4,93,87,77,30.26,30.04,9,3,15,0.17
2013-10-11,64.2,61.8,60.3,60.9,58.7,56.8,94,90,84,30.07,29.98,9,4,17,0.32
2013-10-12,68.0,62.8,59.6,58.1,53.8,47.8,86,73,58,30.25,30.05,12,4,25,0.00
2013-10-13,63.1,58.9,54.3,54.9,51.7,48.8,83,77,64,30.37,30.25,10,4,20,0.00
2013-10-14,65.0,54.3,44.6,53.3,48.4,42.3,95,81,60,30.36,30.26,6,1,10,0.00
2013-10-15,68.8,54.0,42.4,56.6,46.6,40.6,96,79,40,30.27,30.11,7,-3,11,0.00
2013-10-16,67.2,59.7,49.1,60.0,56.3,46.9,95,89,74,30.12,29.94,5,1,8,0.00
2013-10-17,71.9,64.1,59.7,63.2,60.4,58.0,95,88,71,29.94,29.72,7,1,11,0.00
2013-10-18,66.5,59.6,45.7,62.4,47.4,41.1,88,65,46,30.01,29.71,15,5,22,0.00
2013-10-19,63.5,52.0,39.0,55.2,46.1,36.6,94,81,61,30.01,29.78,7,1,10,0.01
2013-10-20,61.6,52.6,39.7,54.8,41.4,34.8,91,68,38,30.09,29.79,11,4,17,0.01
2013-10-21,66.9,50.6,35.6,47.1,39.5,33.5,94,70,36,30.17,30.01,9,-2,14,0.00
2013-10-22,67.7,51.8,39.9,51.7,44.2,37.8,95,77,48,30.01,29.78,12,2,16,0.00
2013-10-23,55.0,46.6,37.9,46.6,40.1,35.5,93,79,57,29.83,29.62,7,1,14,0.02
2013-10-24,52.2,44.1,37.1,36.6,32.3,25.9,86,65,39,30.05,29.79,13,4,24,0.00
2013-10-25,53.3,43.0,34.2,35.4,31.6,28.9,86,65,43,30.27,30.05,10,3,15,0.00
2013-10-26,55.4,43.0,28.7,35.3,31.2,26.3,93,67,37,30.26,29.93,14,3,26,0.00
2013-10-27,57.1,47.9,35.5,36.3,33.7,30.8,83,59,40,30.15,29.89,12,3,18,0.00
2013-10-28,61.3,44.3,30.1,38.3,33.7,27.5,92,70,40,30.31,30.15,10,2,18,0.00
2013-10-29,57.8,45.5,36.8,42.7,38.1,34.1,91,77,52,30.41,30.32,7,1,13,0.00
2013-10-30,58.8,47.8,37.5,53.6,44.7,35.0,93,89,78,30.36,30.20,7,-3,9,0.00
2013-10-31,69.4,60.8,50.7,61.3,55.8,48.5,95,84,70,30.24,29.83,10,3,16,0.02
2013-11-1,69.2,64.7,56.4,62.9,59.0,53.8,94,82,62,29.83,29.59,16,5,27,0.18
2013-11-2,68.7,58.3,50.7,57.9,49.2,40.4,96,75,41,29.80,29.63,8,-3,13,0.01
2013-11-3,52.5,45.5,34.4,41.6,33.3,21.5,85,64,40,30.45,29.80,8,2,16,0.00
2013-11-4,46.4,36.7,28.3,28.8,23.9,20.2,85,61,41,30.66,30.45,8,-2,13,0.00
2013-11-5,56.3,43.8,31.2,42.6,37.0,28.3,92,78,58,30.65,30.49,7,1,10,0.00
2013-11-6,63.0,50.5,32.9,55.0,44.2,30.8,95,80,58,30.51,30.08,8,2,13,0.00
2013-11-7,63.4,55.6,37.0,59.3,50.7,32.1,92,84,67,30.09,29.78,11,4,16,0.10
2013-11-8,48.9,42.1,31.9,36.1,30.0,26.0,86,63,44,30.26,29.97,15,4,22,0.00
2013-11-9,50.3,41.0,27.3,34.9,28.7,23.8,90,63,40,30.32,30.02,9,2,14,0.00
2013-11-10,60.9,49.4,40.8,37.8,32.3,26.3,76,54,35,30.09,29.85,21,7,30,0.00
2013-11-11,54.4,47.9,38.9,35.5,29.7,25.4,60,49,36,30.24,30.00,11,5,18,0.00
2013-11-12,50.4,38.5,29.3,37.2,26.5,17.2,90,63,47,30.32,29.95,12,0,20,0.03
2013-11-13,39.6,31.6,25.7,19.0,16.1,10.1,68,54,30,30.40,30.31,11,3,18,0.00
2013-11-14,53.8,40.8,28.3,21.9,17.0,10.0,71,42,18,30.32,30.20,14,5,22,0.00
2013-11-15,59.4,43.1,29.4,34.5,29.4,21.7,88,61,28,30.28,30.18,6,1,8,0.00
2013-11-16,55.2,45.7,38.2,48.0,40.8,31.3,94,83,72,30.35,30.25,5,0,8,0.06
2013-11-17,65.3,56.1,44.0,60.2,53.8,42.0,95,92,80,30.28,29.81,7,1,12,0.00
2013-11-18,65.3,60.3,50.3,62.4,41.8,26.8,94,55,27,29.81,29.64,14,6,24,0.27
2013-11-19,50.1,43.7,33.7,29.3,25.3,21.8,62,48,42,30.36,29.81,14,5,22,0.00
2013-11-20,44.6,34.6,25.6,23.2,18.8,9.9,76,54,25,30.61,30.36,7,-9,11,0.00
2013-11-21,53.4,42.4,26.1,41.8,34.1,19.3,82,73,59,30.61,30.40,8,1,12,0.00
2013-11-22,57.2,51.6,46.2,50.0,47.0,41.2,91,85,74,30.40,29.94,10,3,16,0.01
2013-11-23,53.0,42.7,31.1,49.4,27.6,15.1,88,56,39,30.06,29.93,16,2,25,0.00
2013-11-24,31.1,25.9,22.6,15.0,2.9,-0.5,51,37,30,30.43,30.04,17,7,29,0.00
2013-11-25,35.7,27.7,20.3,17.1,11.7,3.4,69,51,38,30.53,30.37,9,0,14,0.00
2013-11-26,54.7,38.7,31.0,52.9,29.8,17.1,94,71,47,30.37,29.73,11,2,23,0.52
2013-11-27,63.3,47.5,34.2,61.4,43.8,20.9,94,87,57,29.80,29.37,14,7,27,1.60
2013-11-28,36.3,31.4,26.0,23.1,17.2,11.7,76,56,37,30.50,29.80,17,5,24,0.00
2013-11-29,39.9,31.6,23.0,25.1,20.7,17.9,89,65,45,30.74,30.49,9,-2,13,0.00
2013-11-30,38.4,32.3,23.7,30.3,23.3,14.2,81,69,59,30.75,30.38,7,1,10,0.00
2013-12-1,50.5,40.4,29.6,34.7,31.9,26.0,88,72,52,30.38,30.03,6,1,9,0.00
2013-12-2,51.8,40.2,31.2,33.3,31.4,28.5,91,73,42,30.03,29.90,3,0,5,0.00
2013-12-3,53.1,40.7,32.1,39.9,34.9,29.5,93,81,54,30.02,29.89,6,1,8,0.00
2013-12-4,52.6,42.5,30.7,44.8,38.0,28.3,93,84,65,30.14,30.02,3,0,5,0.00
2013-12-5,62.1,54.3,46.9,56.7,51.9,44.9,96,92,82,30.13,29.95,10,1,16,0.02
2013-12-6,62.2,49.7,38.1,60.4,47.8,36.3,96,93,89,30.15,29.89,10,2,15,0.48
2013-12-7,40.4,36.0,29.9,36.1,29.6,20.9,94,78,61,30.53,30.08,10,2,17,0.11
2013-12-8,33.5,29.6,26.4,32.0,23.1,16.5,94,78,60,30.61,30.35,6,-2,10,0.02
2013-12-9,40.7,36.7,33.4,39.4,35.1,31.6,95,94,92,30.35,29.99,10,0,14,0.65
2013-12-10,34.7,32.0,26.0,31.9,29.4,21.4,94,90,75,30.18,29.87,9,-4,14,0.06
2013-12-11,32.7,27.8,22.0,21.2,18.3,15.2,83,67,52,30.38,30.18,12,3,21,0.01
2013-12-12,27.5,23.1,19.0,17.6,11.2,5.7,87,61,42,30.38,30.21,10,2,16,0.00
2013-12-13,36.1,26.7,18.1,19.8,14.4,8.9,80,60,45,30.35,30.18,14,0,19,0.00
2013-12-14,48.6,31.9,25.1,47.4,28.2,19.8,96,86,72,30.47,29.71,10,3,17,0.98
2013-12-15,52.6,37.3,31.0,51.5,32.0,21.8,96,82,60,29.89,29.50,14,5,23,0.31
2013-12-16,32.7,26.6,17.5,23.4,13.7,8.7,82,59,42,30.26,29.88,13,4,21,0.00
2013-12-17,37.0,28.6,21.3,35.2,24.8,15.4,93,86,65,30.24,29.93,11,-6,16,0.09
2013-12-18,37.7,29.2,23.0,25.7,21.3,18.9,88,73,52,30.21,29.93,12,-3,19,0.00
2013-12-19,48.2,35.5,24.9,29.9,25.8,19.0,83,69,46,30.23,30.06,9,2,15,0.00
2013-12-20,55.1,44.7,30.6,49.6,35.1,27.3,89,71,45,30.12,30.00,10,3,16,0.00
2013-12-21,67.7,58.2,51.1,56.2,50.8,46.6,86,77,60,30.02,29.91,13,4,22,0.00
2013-12-22,71.3,64.9,61.4,63.3,59.3,56.0,89,82,72,29.99,29.82,18,6,32,0.05
2013-12-23,63.1,56.4,41.8,61.6,53.4,34.5,95,90,76,30.17,29.89,10,2,19,0.50
2013-12-24,41.7,35.8,27.3,34.4,23.7,12.5,76,61,48,30.37,30.11,13,4,19,0.00
2013-12-25,30.1,25.2,19.3,17.4,11.1,7.5,69,55,43,30.55,30.37,12,2,19,0.00
2013-12-26,39.3,28.9,20.9,27.4,22.1,16.1,88,76,59,30.44,30.19,11,-2,18,0.00
2013-12-27,42.9,30.6,20.9,23.2,20.5,16.2,90,69,39,30.40,30.29,11,2,15,0.00
2013-12-28,56.4,40.2,22.5,29.9,26.2,19.5,90,60,34,30.32,30.11,15,3,26,0.00
2013-12-29,49.0,43.2,41.0,47.6,37.0,28.0,95,80,57,30.10,29.41,11,3,18,0.97
2013-12-30,45.5,37.3,24.3,39.8,29.6,13.5,92,74,56,30.20,29.73,12,4,19,0.00
2013-12-31,36.9,28.0,20.4,25.9,15.6,11.0,74,59,47,30.32,30.09,18,0,26,0.00
2014-1-1,37.1,29.5,22.4,28.1,17.9,10.4,77,62,50,30.44,30.24,11,-2,16,0.00
2014-1-2,35.7,30.1,22.2,30.8,26.5,20.0,91,86,77,30.23,29.64,9,0,15,0.00